Year,Month,Day,Hour,Minute,Value (Times are PST for insolation in W/m^2)
2018,12,27,00,00,0.00
2018,12,27,00,01,0.00
2018,12,27,00,02,0.00
2018,12,27,00,03,0.00
2018,12,27,00,04,0.00
2018,12,27,00,05,0.00
2018,12,27,00,06,0.00
2018,12,27,00,07,0.00
2018,12,27,00,08,0.00
2018,12,27,00,09,0.00
2018,12,27,00,10,0.00
2018,12,27,00,11,0.00
2018,12,27,00,12,0.00
2018,12,27,00,13,0.00
2018,12,27,00,14,0.00
2018,12,27,00,15,0.00
2018,12,27,00,16,0.00
2018,12,27,00,17,0.00
2018,12,27,00,18,0.00
2018,12,27,00,19,0.00
2018,12,27,00,20,0.00
2018,12,27,00,21,0.00
2018,12,27,00,22,0.00
2018,12,27,00,23,0.00
2018,12,27,00,24,0.00
2018,12,27,00,25,0.00
2018,12,27,00,26,0.00
2018,12,27,00,27,0.00
2018,12,27,00,28,0.00
2018,12,27,00,29,0.00
2018,12,27,00,30,0.00
2018,12,27,00,31,0.00
2018,12,27,00,32,0.00
2018,12,27,00,33,0.00
2018,12,27,00,34,0.00
2018,12,27,00,35,0.00
2018,12,27,00,36,0.00
2018,12,27,00,37,0.00
2018,12,27,00,38,0.00
2018,12,27,00,39,0.00
2018,12,27,00,40,0.00
2018,12,27,00,41,0.00
2018,12,27,00,42,0.00
2018,12,27,00,43,0.00
2018,12,27,00,44,0.00
2018,12,27,00,45,0.00
2018,12,27,00,46,0.00
2018,12,27,00,47,0.00
2018,12,27,00,48,0.00
2018,12,27,00,49,0.00
2018,12,27,00,50,0.00
2018,12,27,00,51,0.00
2018,12,27,00,52,0.00
2018,12,27,00,53,0.00
2018,12,27,00,54,0.00
2018,12,27,00,55,0.00
2018,12,27,00,56,0.00
2018,12,27,00,57,0.00
2018,12,27,00,58,0.00
2018,12,27,00,59,0.00
2018,12,27,01,00,0.00
2018,12,27,01,01,0.00
2018,12,27,01,02,0.00
2018,12,27,01,03,0.00
2018,12,27,01,04,0.00
2018,12,27,01,05,0.00
2018,12,27,01,06,0.00
2018,12,27,01,07,0.00
2018,12,27,01,08,0.00
2018,12,27,01,09,0.00
2018,12,27,01,10,0.00
2018,12,27,01,11,0.00
2018,12,27,01,12,0.00
2018,12,27,01,13,0.00
2018,12,27,01,14,0.00
2018,12,27,01,15,0.00
2018,12,27,01,16,0.00
2018,12,27,01,17,0.00
2018,12,27,01,18,0.00
2018,12,27,01,19,0.00
2018,12,27,01,20,0.00
2018,12,27,01,21,0.00
2018,12,27,01,22,0.00
2018,12,27,01,23,0.00
2018,12,27,01,24,0.00
2018,12,27,01,25,0.00
2018,12,27,01,26,0.00
2018,12,27,01,27,0.00
2018,12,27,01,28,0.00
2018,12,27,01,29,0.00
2018,12,27,01,30,0.00
2018,12,27,01,31,0.00
2018,12,27,01,32,0.00
2018,12,27,01,33,0.00
2018,12,27,01,34,0.00
2018,12,27,01,35,0.00
2018,12,27,01,36,0.00
2018,12,27,01,37,0.00
2018,12,27,01,38,0.00
2018,12,27,01,39,0.00
2018,12,27,01,40,0.00
2018,12,27,01,41,0.00
2018,12,27,01,42,0.00
2018,12,27,01,43,0.00
2018,12,27,01,44,0.00
2018,12,27,01,45,0.00
2018,12,27,01,46,0.00
2018,12,27,01,47,0.00
2018,12,27,01,48,0.00
2018,12,27,01,49,0.00
2018,12,27,01,50,0.00
2018,12,27,01,51,0.00
2018,12,27,01,52,0.00
2018,12,27,01,53,0.00
2018,12,27,01,54,0.00
2018,12,27,01,55,0.00
2018,12,27,01,56,0.00
2018,12,27,01,57,0.00
2018,12,27,01,58,0.00
2018,12,27,01,59,0.00
2018,12,27,02,00,0.00
2018,12,27,02,01,0.00
2018,12,27,02,02,0.00
2018,12,27,02,03,0.00
2018,12,27,02,04,0.00
2018,12,27,02,05,0.00
2018,12,27,02,06,0.00
2018,12,27,02,07,0.00
2018,12,27,02,08,0.00
2018,12,27,02,09,0.00
2018,12,27,02,10,0.00
2018,12,27,02,11,0.00
2018,12,27,02,12,0.00
2018,12,27,02,13,0.00
2018,12,27,02,14,0.00
2018,12,27,02,15,0.00
2018,12,27,02,16,0.00
2018,12,27,02,17,0.00
2018,12,27,02,18,0.00
2018,12,27,02,19,0.00
2018,12,27,02,20,0.00
2018,12,27,02,21,0.00
2018,12,27,02,22,0.00
2018,12,27,02,23,0.00
2018,12,27,02,24,0.00
2018,12,27,02,25,0.00
2018,12,27,02,26,0.00
2018,12,27,02,27,0.00
2018,12,27,02,28,0.00
2018,12,27,02,29,0.00
2018,12,27,02,30,0.00
2018,12,27,02,31,0.00
2018,12,27,02,32,0.00
2018,12,27,02,33,0.00
2018,12,27,02,34,0.00
2018,12,27,02,35,0.00
2018,12,27,02,36,0.00
2018,12,27,02,37,0.00
2018,12,27,02,38,0.00
2018,12,27,02,39,0.00
2018,12,27,02,40,0.00
2018,12,27,02,41,0.00
2018,12,27,02,42,0.00
2018,12,27,02,43,0.00
2018,12,27,02,44,0.00
2018,12,27,02,45,0.00
2018,12,27,02,46,0.00
2018,12,27,02,47,0.00
2018,12,27,02,48,0.00
2018,12,27,02,49,0.00
2018,12,27,02,50,0.00
2018,12,27,02,51,0.00
2018,12,27,02,52,0.00
2018,12,27,02,53,0.00
2018,12,27,02,54,0.00
2018,12,27,02,55,0.00
2018,12,27,02,56,0.00
2018,12,27,02,57,0.00
2018,12,27,02,58,0.00
2018,12,27,02,59,0.00
2018,12,27,03,00,0.00
2018,12,27,03,01,0.00
2018,12,27,03,02,0.00
2018,12,27,03,03,0.00
2018,12,27,03,04,0.00
2018,12,27,03,05,0.00
2018,12,27,03,06,0.00
2018,12,27,03,07,0.00
2018,12,27,03,08,0.00
2018,12,27,03,09,0.00
2018,12,27,03,10,0.00
2018,12,27,03,11,0.00
2018,12,27,03,12,0.00
2018,12,27,03,13,0.00
2018,12,27,03,14,0.00
2018,12,27,03,15,0.00
2018,12,27,03,16,0.00
2018,12,27,03,17,0.00
2018,12,27,03,18,0.00
2018,12,27,03,19,0.00
2018,12,27,03,20,0.00
2018,12,27,03,21,0.00
2018,12,27,03,22,0.00
2018,12,27,03,23,0.00
2018,12,27,03,24,0.00
2018,12,27,03,25,0.00
2018,12,27,03,26,0.00
2018,12,27,03,27,0.00
2018,12,27,03,28,0.00
2018,12,27,03,29,0.00
2018,12,27,03,30,0.00
2018,12,27,03,31,0.00
2018,12,27,03,32,0.00
2018,12,27,03,33,0.00
2018,12,27,03,34,0.00
2018,12,27,03,35,0.00
2018,12,27,03,36,0.00
2018,12,27,03,37,0.00
2018,12,27,03,38,0.00
2018,12,27,03,39,0.00
2018,12,27,03,40,0.00
2018,12,27,03,41,0.00
2018,12,27,03,42,0.00
2018,12,27,03,43,0.00
2018,12,27,03,44,0.00
2018,12,27,03,45,0.00
2018,12,27,03,46,0.00
2018,12,27,03,47,0.00
2018,12,27,03,48,0.00
2018,12,27,03,49,0.00
2018,12,27,03,50,0.00
2018,12,27,03,51,0.00
2018,12,27,03,52,0.00
2018,12,27,03,53,0.00
2018,12,27,03,54,0.00
2018,12,27,03,55,0.00
2018,12,27,03,56,0.00
2018,12,27,03,57,0.00
2018,12,27,03,58,0.00
2018,12,27,03,59,0.00
2018,12,27,04,00,0.00
2018,12,27,04,01,0.00
2018,12,27,04,02,0.00
2018,12,27,04,03,0.00
2018,12,27,04,04,0.00
2018,12,27,04,05,0.00
2018,12,27,04,06,0.00
2018,12,27,04,07,0.00
2018,12,27,04,08,0.00
2018,12,27,04,09,0.00
2018,12,27,04,10,0.00
2018,12,27,04,11,0.00
2018,12,27,04,12,0.00
2018,12,27,04,13,0.00
2018,12,27,04,14,0.00
2018,12,27,04,15,0.00
2018,12,27,04,16,0.00
2018,12,27,04,17,0.00
2018,12,27,04,18,0.00
2018,12,27,04,19,0.00
2018,12,27,04,20,0.00
2018,12,27,04,21,0.00
2018,12,27,04,22,0.00
2018,12,27,04,23,0.00
2018,12,27,04,24,0.00
2018,12,27,04,25,0.00
2018,12,27,04,26,0.00
2018,12,27,04,27,0.00
2018,12,27,04,28,0.00
2018,12,27,04,29,0.00
2018,12,27,04,30,0.00
2018,12,27,04,31,0.00
2018,12,27,04,32,0.00
2018,12,27,04,33,0.00
2018,12,27,04,34,0.00
2018,12,27,04,35,0.00
2018,12,27,04,36,0.00
2018,12,27,04,37,0.00
2018,12,27,04,38,0.00
2018,12,27,04,39,0.00
2018,12,27,04,40,0.00
2018,12,27,04,41,0.00
2018,12,27,04,42,0.00
2018,12,27,04,43,0.00
2018,12,27,04,44,0.00
2018,12,27,04,45,0.00
2018,12,27,04,46,0.00
2018,12,27,04,47,0.00
2018,12,27,04,48,0.00
2018,12,27,04,49,0.00
2018,12,27,04,50,0.00
2018,12,27,04,51,0.00
2018,12,27,04,52,0.00
2018,12,27,04,53,0.00
2018,12,27,04,54,0.00
2018,12,27,04,55,0.00
2018,12,27,04,56,0.00
2018,12,27,04,57,0.00
2018,12,27,04,58,0.00
2018,12,27,04,59,0.00
2018,12,27,05,00,0.00
2018,12,27,05,01,0.00
2018,12,27,05,02,0.00
2018,12,27,05,03,0.00
2018,12,27,05,04,0.00
2018,12,27,05,05,0.00
2018,12,27,05,06,0.00
2018,12,27,05,07,0.00
2018,12,27,05,08,0.00
2018,12,27,05,09,0.00
2018,12,27,05,10,0.00
2018,12,27,05,11,0.00
2018,12,27,05,12,0.00
2018,12,27,05,13,0.00
2018,12,27,05,14,0.00
2018,12,27,05,15,0.00
2018,12,27,05,16,0.00
2018,12,27,05,17,0.00
2018,12,27,05,18,0.00
2018,12,27,05,19,0.00
2018,12,27,05,20,0.00
2018,12,27,05,21,0.00
2018,12,27,05,22,0.00
2018,12,27,05,23,0.00
2018,12,27,05,24,0.00
2018,12,27,05,25,0.00
2018,12,27,05,26,0.00
2018,12,27,05,27,0.00
2018,12,27,05,28,0.00
2018,12,27,05,29,0.00
2018,12,27,05,30,0.00
2018,12,27,05,31,0.00
2018,12,27,05,32,0.00
2018,12,27,05,33,0.00
2018,12,27,05,34,0.00
2018,12,27,05,35,0.00
2018,12,27,05,36,0.00
2018,12,27,05,37,0.00
2018,12,27,05,38,0.00
2018,12,27,05,39,0.00
2018,12,27,05,40,0.00
2018,12,27,05,41,0.00
2018,12,27,05,42,0.00
2018,12,27,05,43,0.00
2018,12,27,05,44,0.00
2018,12,27,05,45,0.00
2018,12,27,05,46,0.00
2018,12,27,05,47,0.00
2018,12,27,05,48,0.00
2018,12,27,05,49,0.00
2018,12,27,05,50,0.00
2018,12,27,05,51,0.00
2018,12,27,05,52,0.00
2018,12,27,05,53,0.00
2018,12,27,05,54,0.00
2018,12,27,05,55,0.00
2018,12,27,05,56,0.00
2018,12,27,05,57,0.00
2018,12,27,05,58,0.00
2018,12,27,05,59,0.00
2018,12,27,06,00,0.00
2018,12,27,06,01,0.00
2018,12,27,06,02,0.00
2018,12,27,06,03,0.00
2018,12,27,06,04,0.00
2018,12,27,06,05,0.00
2018,12,27,06,06,0.00
2018,12,27,06,07,0.00
2018,12,27,06,08,0.00
2018,12,27,06,09,0.00
2018,12,27,06,10,0.00
2018,12,27,06,11,0.00
2018,12,27,06,12,0.00
2018,12,27,06,13,0.00
2018,12,27,06,14,0.00
2018,12,27,06,15,0.00
2018,12,27,06,16,0.00
2018,12,27,06,17,0.00
2018,12,27,06,18,0.00
2018,12,27,06,19,0.00
2018,12,27,06,20,0.00
2018,12,27,06,21,0.00
2018,12,27,06,22,0.00
2018,12,27,06,23,0.00
2018,12,27,06,24,0.00
2018,12,27,06,25,0.00
2018,12,27,06,26,0.00
2018,12,27,06,27,0.00
2018,12,27,06,28,0.00
2018,12,27,06,29,0.00
2018,12,27,06,30,0.00
2018,12,27,06,31,0.00
2018,12,27,06,32,0.00
2018,12,27,06,33,0.00
2018,12,27,06,34,0.00
2018,12,27,06,35,0.00
2018,12,27,06,36,0.00
2018,12,27,06,37,0.00
2018,12,27,06,38,0.00
2018,12,27,06,39,0.00
2018,12,27,06,40,0.00
2018,12,27,06,41,0.00
2018,12,27,06,42,0.00
2018,12,27,06,43,0.00
2018,12,27,06,44,0.00
2018,12,27,06,45,0.00
2018,12,27,06,46,0.00
2018,12,27,06,47,0.00
2018,12,27,06,48,0.00
2018,12,27,06,49,0.00
2018,12,27,06,50,0.00
2018,12,27,06,51,0.00
2018,12,27,06,52,0.00
2018,12,27,06,53,0.00
2018,12,27,06,54,0.00
2018,12,27,06,55,0.00
2018,12,27,06,56,0.00
2018,12,27,06,57,0.00
2018,12,27,06,58,0.00
2018,12,27,06,59,0.00
2018,12,27,07,00,0.00
2018,12,27,07,01,0.00
2018,12,27,07,02,0.00
2018,12,27,07,03,0.00
2018,12,27,07,04,0.00
2018,12,27,07,05,0.00
2018,12,27,07,06,0.00
2018,12,27,07,07,0.00
2018,12,27,07,08,0.00
2018,12,27,07,09,0.00
2018,12,27,07,10,0.00
2018,12,27,07,11,0.00
2018,12,27,07,12,0.00
2018,12,27,07,13,0.00
2018,12,27,07,14,0.00
2018,12,27,07,15,0.00
2018,12,27,07,16,0.00
2018,12,27,07,17,0.00
2018,12,27,07,18,0.00
2018,12,27,07,19,0.00
2018,12,27,07,20,0.00
2018,12,27,07,21,0.00
2018,12,27,07,22,0.00
2018,12,27,07,23,0.00
2018,12,27,07,24,0.00
2018,12,27,07,25,0.00
2018,12,27,07,26,0.00
2018,12,27,07,27,0.00
2018,12,27,07,28,0.00
2018,12,27,07,29,0.00
2018,12,27,07,30,0.00
2018,12,27,07,31,0.00
2018,12,27,07,32,0.00
2018,12,27,07,33,0.00
2018,12,27,07,34,0.00
2018,12,27,07,35,0.00
2018,12,27,07,36,0.00
2018,12,27,07,37,0.00
2018,12,27,07,38,0.00
2018,12,27,07,39,0.00
2018,12,27,07,40,0.00
2018,12,27,07,41,0.00
2018,12,27,07,42,0.00
2018,12,27,07,43,0.00
2018,12,27,07,44,0.00
2018,12,27,07,45,0.00
2018,12,27,07,46,0.00
2018,12,27,07,47,0.00
2018,12,27,07,48,0.00
2018,12,27,07,49,0.00
2018,12,27,07,50,0.00
2018,12,27,07,51,0.00
2018,12,27,07,52,0.00
2018,12,27,07,53,0.00
2018,12,27,07,54,0.00
2018,12,27,07,55,0.00
2018,12,27,07,56,0.00
2018,12,27,07,57,0.00
2018,12,27,07,58,0.00
2018,12,27,07,59,0.00
2018,12,27,08,00,0.00
2018,12,27,08,01,0.00
2018,12,27,08,02,0.00
2018,12,27,08,03,0.00
2018,12,27,08,04,0.00
2018,12,27,08,05,0.00
2018,12,27,08,06,0.00
2018,12,27,08,07,0.00
2018,12,27,08,08,0.00
2018,12,27,08,09,0.00
2018,12,27,08,10,0.00
2018,12,27,08,11,1.20
2018,12,27,08,12,5.00
2018,12,27,08,13,5.00
2018,12,27,08,14,5.00
2018,12,27,08,15,5.00
2018,12,27,08,16,5.00
2018,12,27,08,17,5.00
2018,12,27,08,18,5.00
2018,12,27,08,19,5.00
2018,12,27,08,20,5.00
2018,12,27,08,21,5.10
2018,12,27,08,22,7.00
2018,12,27,08,23,7.00
2018,12,27,08,24,7.00
2018,12,27,08,25,7.00
2018,12,27,08,26,7.00
2018,12,27,08,27,7.10
2018,12,27,08,28,9.00
2018,12,27,08,29,9.00
2018,12,27,08,30,9.00
2018,12,27,08,31,10.30
2018,12,27,08,32,11.00
2018,12,27,08,33,11.00
2018,12,27,08,34,11.20
2018,12,27,08,35,12.00
2018,12,27,08,36,12.00
2018,12,27,08,37,12.00
2018,12,27,08,38,12.00
2018,12,27,08,39,13.90
2018,12,27,08,40,14.00
2018,12,27,08,41,14.00
2018,12,27,08,42,14.00
2018,12,27,08,43,15.30
2018,12,27,08,44,17.60
2018,12,27,08,45,19.20
2018,12,27,08,46,21.50
2018,12,27,08,47,24.20
2018,12,27,08,48,27.10
2018,12,27,08,49,29.40
2018,12,27,08,50,31.70
2018,12,27,08,51,32.10
2018,12,27,08,52,33.50
2018,12,27,08,53,35.00
2018,12,27,08,54,35.00
2018,12,27,08,55,35.00
2018,12,27,08,56,44.30
2018,12,27,08,57,50.70
2018,12,27,08,58,63.00
2018,12,27,08,59,72.90
2018,12,27,09,00,71.50
2018,12,27,09,01,47.40
2018,12,27,09,02,45.10
2018,12,27,09,03,78.70
2018,12,27,09,04,94.50
2018,12,27,09,05,98.90
2018,12,27,09,06,91.90
2018,12,27,09,07,55.20
2018,12,27,09,08,80.80
2018,12,27,09,09,105.10
2018,12,27,09,10,75.00
2018,12,27,09,11,50.50
2018,12,27,09,12,55.50
2018,12,27,09,13,55.30
2018,12,27,09,14,43.00
2018,12,27,09,15,40.40
2018,12,27,09,16,42.00
2018,12,27,09,17,42.00
2018,12,27,09,18,43.30
2018,12,27,09,19,44.00
2018,12,27,09,20,45.80
2018,12,27,09,21,47.50
2018,12,27,09,22,49.80
2018,12,27,09,23,52.10
2018,12,27,09,24,55.00
2018,12,27,09,25,59.20
2018,12,27,09,26,60.50
2018,12,27,09,27,64.10
2018,12,27,09,28,68.20
2018,12,27,09,29,69.40
2018,12,27,09,30,67.60
2018,12,27,09,31,69.40
2018,12,27,09,32,120.50
2018,12,27,09,33,143.50
2018,12,27,09,34,91.20
2018,12,27,09,35,76.60
2018,12,27,09,36,93.00
2018,12,27,09,37,117.30
2018,12,27,09,38,108.80
2018,12,27,09,39,78.10
2018,12,27,09,40,76.00
2018,12,27,09,41,79.80
2018,12,27,09,42,91.40
2018,12,27,09,43,143.30
2018,12,27,09,44,168.80
2018,12,27,09,45,158.10
2018,12,27,09,46,172.50
2018,12,27,09,47,188.40
2018,12,27,09,48,149.20
2018,12,27,09,49,156.80
2018,12,27,09,50,203.70
2018,12,27,09,51,139.10
2018,12,27,09,52,114.60
2018,12,27,09,53,106.10
2018,12,27,09,54,99.00
2018,12,27,09,55,97.20
2018,12,27,09,56,98.40
2018,12,27,09,57,100.70
2018,12,27,09,58,102.90
2018,12,27,09,59,104.60
2018,12,27,10,00,105.00
2018,12,27,10,01,105.00
2018,12,27,10,02,105.40
2018,12,27,10,03,106.30
2018,12,27,10,04,106.00
2018,12,27,10,05,107.00
2018,12,27,10,06,108.60
2018,12,27,10,07,111.10
2018,12,27,10,08,113.00
2018,12,27,10,09,113.00
2018,12,27,10,10,109.80
2018,12,27,10,11,103.80
2018,12,27,10,12,98.80
2018,12,27,10,13,97.00
2018,12,27,10,14,97.00
2018,12,27,10,15,97.40
2018,12,27,10,16,99.10
2018,12,27,10,17,100.00
2018,12,27,10,18,101.70
2018,12,27,10,19,104.30
2018,12,27,10,20,108.20
2018,12,27,10,21,111.90
2018,12,27,10,22,113.60
2018,12,27,10,23,114.00
2018,12,27,10,24,117.50
2018,12,27,10,25,120.50
2018,12,27,10,26,124.50
2018,12,27,10,27,130.70
2018,12,27,10,28,138.20
2018,12,27,10,29,146.20
2018,12,27,10,30,152.50
2018,12,27,10,31,160.40
2018,12,27,10,32,163.00
2018,12,27,10,33,165.70
2018,12,27,10,34,170.80
2018,12,27,10,35,157.00
2018,12,27,10,36,146.90
2018,12,27,10,37,154.90
2018,12,27,10,38,181.70
2018,12,27,10,39,171.50
2018,12,27,10,40,163.20
2018,12,27,10,41,169.70
2018,12,27,10,42,173.90
2018,12,27,10,43,239.20
2018,12,27,10,44,233.60
2018,12,27,10,45,173.90
2018,12,27,10,46,186.90
2018,12,27,10,47,169.40
2018,12,27,10,48,206.10
2018,12,27,10,49,253.00
2018,12,27,10,50,312.20
2018,12,27,10,51,359.80
2018,12,27,10,52,386.40
2018,12,27,10,53,387.00
2018,12,27,10,54,372.90
2018,12,27,10,55,260.50
2018,12,27,10,56,278.70
2018,12,27,10,57,234.00
2018,12,27,10,58,264.70
2018,12,27,10,59,223.80
2018,12,27,11,00,206.60
2018,12,27,11,01,204.00
2018,12,27,11,02,204.00
2018,12,27,11,03,208.10
2018,12,27,11,04,206.10
2018,12,27,11,05,190.40
2018,12,27,11,06,171.90
2018,12,27,11,07,173.10
2018,12,27,11,08,177.20
2018,12,27,11,09,176.00
2018,12,27,11,10,176.00
2018,12,27,11,11,171.40
2018,12,27,11,12,164.70
2018,12,27,11,13,163.00
2018,12,27,11,14,164.00
2018,12,27,11,15,166.30
2018,12,27,11,16,168.50
2018,12,27,11,17,169.00
2018,12,27,11,18,168.60
2018,12,27,11,19,167.70
2018,12,27,11,20,170.00
2018,12,27,11,21,171.60
2018,12,27,11,22,176.50
2018,12,27,11,23,179.00
2018,12,27,11,24,190.80
2018,12,27,11,25,204.50
2018,12,27,11,26,214.00
2018,12,27,11,27,228.90
2018,12,27,11,28,259.70
2018,12,27,11,29,261.30
2018,12,27,11,30,237.50
2018,12,27,11,31,249.00
2018,12,27,11,32,264.50
2018,12,27,11,33,277.30
2018,12,27,11,34,284.60
2018,12,27,11,35,274.50
2018,12,27,11,36,312.80
2018,12,27,11,37,381.00
2018,12,27,11,38,462.40
2018,12,27,11,39,529.00
2018,12,27,11,40,388.20
2018,12,27,11,41,326.10
2018,12,27,11,42,354.30
2018,12,27,11,43,388.70
2018,12,27,11,44,416.70
2018,12,27,11,45,441.00
2018,12,27,11,46,296.50
2018,12,27,11,47,278.80
2018,12,27,11,48,249.30
2018,12,27,11,49,237.00
2018,12,27,11,50,249.60
2018,12,27,11,51,245.20
2018,12,27,11,52,236.20
2018,12,27,11,53,227.80
2018,12,27,11,54,210.90
2018,12,27,11,55,190.90
2018,12,27,11,56,186.90
2018,12,27,11,57,199.50
2018,12,27,11,58,200.20
2018,12,27,11,59,210.60
2018,12,27,12,00,175.40
2018,12,27,12,01,157.60
2018,12,27,12,02,144.50
2018,12,27,12,03,143.20
2018,12,27,12,04,156.10
2018,12,27,12,05,191.00
2018,12,27,12,06,218.40
2018,12,27,12,07,231.00
2018,12,27,12,08,252.10
2018,12,27,12,09,240.00
2018,12,27,12,10,227.90
2018,12,27,12,11,235.40
2018,12,27,12,12,260.60
2018,12,27,12,13,268.40
2018,12,27,12,14,254.40
2018,12,27,12,15,303.40
2018,12,27,12,16,274.40
2018,12,27,12,17,327.20
2018,12,27,12,18,264.60
2018,12,27,12,19,255.20
2018,12,27,12,20,248.20
2018,12,27,12,21,240.40
2018,12,27,12,22,264.90
2018,12,27,12,23,215.40
2018,12,27,12,24,185.80
2018,12,27,12,25,171.10
2018,12,27,12,26,163.50
2018,12,27,12,27,155.70
2018,12,27,12,28,148.40
2018,12,27,12,29,152.20
2018,12,27,12,30,156.40
2018,12,27,12,31,160.40
2018,12,27,12,32,168.60
2018,12,27,12,33,176.40
2018,12,27,12,34,164.80
2018,12,27,12,35,153.80
2018,12,27,12,36,147.60
2018,12,27,12,37,146.00
2018,12,27,12,38,153.10
2018,12,27,12,39,155.40
2018,12,27,12,40,161.60
2018,12,27,12,41,161.10
2018,12,27,12,42,165.10
2018,12,27,12,43,164.40
2018,12,27,12,44,163.00
2018,12,27,12,45,163.00
2018,12,27,12,46,164.70
2018,12,27,12,47,173.80
2018,12,27,12,48,180.90
2018,12,27,12,49,180.40
2018,12,27,12,50,176.60
2018,12,27,12,51,177.20
2018,12,27,12,52,169.30
2018,12,27,12,53,160.20
2018,12,27,12,54,153.20
2018,12,27,12,55,154.20
2018,12,27,12,56,160.80
2018,12,27,12,57,155.50
2018,12,27,12,58,152.00
2018,12,27,12,59,157.00
2018,12,27,13,00,161.60
2018,12,27,13,01,165.80
2018,12,27,13,02,171.20
2018,12,27,13,03,174.60
2018,12,27,13,04,180.40
2018,12,27,13,05,188.90
2018,12,27,13,06,192.40
2018,12,27,13,07,187.10
2018,12,27,13,08,177.40
2018,12,27,13,09,162.90
2018,12,27,13,10,147.40
2018,12,27,13,11,134.10
2018,12,27,13,12,122.20
2018,12,27,13,13,114.20
2018,12,27,13,14,111.20
2018,12,27,13,15,108.70
2018,12,27,13,16,107.00
2018,12,27,13,17,106.10
2018,12,27,13,18,106.20
2018,12,27,13,19,107.00
2018,12,27,13,20,105.20
2018,12,27,13,21,104.00
2018,12,27,13,22,102.60
2018,12,27,13,23,99.10
2018,12,27,13,24,96.20
2018,12,27,13,25,93.50
2018,12,27,13,26,91.20
2018,12,27,13,27,90.00
2018,12,27,13,28,90.00
2018,12,27,13,29,90.00
2018,12,27,13,30,90.60
2018,12,27,13,31,92.60
2018,12,27,13,32,93.00
2018,12,27,13,33,93.50
2018,12,27,13,34,95.00
2018,12,27,13,35,95.00
2018,12,27,13,36,95.00
2018,12,27,13,37,95.00
2018,12,27,13,38,94.70
2018,12,27,13,39,92.50
2018,12,27,13,40,90.60
2018,12,27,13,41,87.80
2018,12,27,13,42,83.90
2018,12,27,13,43,79.80
2018,12,27,13,44,75.80
2018,12,27,13,45,73.40
2018,12,27,13,46,72.00
2018,12,27,13,47,70.90
2018,12,27,13,48,70.00
2018,12,27,13,49,70.00
2018,12,27,13,50,70.30
2018,12,27,13,51,72.00
2018,12,27,13,52,72.90
2018,12,27,13,53,75.20
2018,12,27,13,54,76.00
2018,12,27,13,55,76.00
2018,12,27,13,56,76.20
2018,12,27,13,57,77.00
2018,12,27,13,58,77.90
2018,12,27,13,59,80.20
2018,12,27,14,00,82.50
2018,12,27,14,01,83.90
2018,12,27,14,02,84.30
2018,12,27,14,03,86.00
2018,12,27,14,04,87.00
2018,12,27,14,05,89.30
2018,12,27,14,06,90.80
2018,12,27,14,07,93.00
2018,12,27,14,08,95.00
2018,12,27,14,09,95.00
2018,12,27,14,10,95.00
2018,12,27,14,11,93.70
2018,12,27,14,12,91.40
2018,12,27,14,13,90.90
2018,12,27,14,14,90.00
2018,12,27,14,15,89.30
2018,12,27,14,16,87.00
2018,12,27,14,17,86.00
2018,12,27,14,18,86.00
2018,12,27,14,19,86.00
2018,12,27,14,20,86.00
2018,12,27,14,21,86.00
2018,12,27,14,22,86.00
2018,12,27,14,23,84.60
2018,12,27,14,24,83.20
2018,12,27,14,25,81.10
2018,12,27,14,26,81.00
2018,12,27,14,27,80.20
2018,12,27,14,28,77.90
2018,12,27,14,29,76.30
2018,12,27,14,30,76.00
2018,12,27,14,31,75.70
2018,12,27,14,32,74.00
2018,12,27,14,33,73.10
2018,12,27,14,34,72.00
2018,12,27,14,35,70.60
2018,12,27,14,36,69.10
2018,12,27,14,37,67.00
2018,12,27,14,38,66.40
2018,12,27,14,39,64.10
2018,12,27,14,40,62.40
2018,12,27,14,41,60.50
2018,12,27,14,42,58.20
2018,12,27,14,43,55.60
2018,12,27,14,44,54.00
2018,12,27,14,45,54.00
2018,12,27,14,46,54.00
2018,12,27,14,47,54.00
2018,12,27,14,48,54.00
2018,12,27,14,49,54.00
2018,12,27,14,50,54.00
2018,12,27,14,51,53.50
2018,12,27,14,52,53.00
2018,12,27,14,53,51.40
2018,12,27,14,54,49.20
2018,12,27,14,55,48.50
2018,12,27,14,56,47.00
2018,12,27,14,57,48.10
2018,12,27,14,58,49.00
2018,12,27,14,59,49.00
2018,12,27,15,00,49.00
2018,12,27,15,01,49.00
2018,12,27,15,02,48.20
2018,12,27,15,03,47.00
2018,12,27,15,04,46.30
2018,12,27,15,05,46.00
2018,12,27,15,06,46.00
2018,12,27,15,07,45.40
2018,12,27,15,08,44.00
2018,12,27,15,09,44.00
2018,12,27,15,10,44.00
2018,12,27,15,11,44.00
2018,12,27,15,12,44.00
2018,12,27,15,13,44.00
2018,12,27,15,14,44.00
2018,12,27,15,15,42.80
2018,12,27,15,16,42.00
2018,12,27,15,17,40.30
2018,12,27,15,18,39.80
2018,12,27,15,19,39.00
2018,12,27,15,20,38.10
2018,12,27,15,21,37.00
2018,12,27,15,22,37.00
2018,12,27,15,23,36.90
2018,12,27,15,24,35.00
2018,12,27,15,25,35.00
2018,12,27,15,26,35.00
2018,12,27,15,27,35.00
2018,12,27,15,28,35.00
2018,12,27,15,29,34.90
2018,12,27,15,30,32.80
2018,12,27,15,31,31.40
2018,12,27,15,32,30.00
2018,12,27,15,33,28.70
2018,12,27,15,34,26.40
2018,12,27,15,35,25.90
2018,12,27,15,36,25.00
2018,12,27,15,37,25.00
2018,12,27,15,38,25.00
2018,12,27,15,39,23.60
2018,12,27,15,40,23.00
2018,12,27,15,41,22.80
2018,12,27,15,42,21.00
2018,12,27,15,43,20.20
2018,12,27,15,44,19.00
2018,12,27,15,45,19.00
2018,12,27,15,46,18.20
2018,12,27,15,47,18.00
2018,12,27,15,48,17.50
2018,12,27,15,49,16.00
2018,12,27,15,50,16.00
2018,12,27,15,51,16.00
2018,12,27,15,52,14.30
2018,12,27,15,53,14.00
2018,12,27,15,54,13.40
2018,12,27,15,55,12.00
2018,12,27,15,56,12.00
2018,12,27,15,57,11.30
2018,12,27,15,58,11.00
2018,12,27,15,59,9.00
2018,12,27,16,00,8.40
2018,12,27,16,01,7.00
2018,12,27,16,02,7.00
2018,12,27,16,03,7.00
2018,12,27,16,04,6.90
2018,12,27,16,05,5.00
2018,12,27,16,06,5.00
2018,12,27,16,07,5.00
2018,12,27,16,08,5.00
2018,12,27,16,09,5.00
2018,12,27,16,10,0.50
2018,12,27,16,11,0.00
2018,12,27,16,12,0.00
2018,12,27,16,13,0.00
2018,12,27,16,14,0.00
2018,12,27,16,15,0.00
2018,12,27,16,16,0.00
2018,12,27,16,17,0.00
2018,12,27,16,18,0.00
2018,12,27,16,19,0.00
2018,12,27,16,20,0.00
2018,12,27,16,21,0.00
2018,12,27,16,22,0.00
2018,12,27,16,23,0.00
2018,12,27,16,24,0.00
2018,12,27,16,25,0.00
2018,12,27,16,26,0.00
2018,12,27,16,27,0.00
2018,12,27,16,28,0.00
2018,12,27,16,29,0.00
2018,12,27,16,30,0.00
2018,12,27,16,31,0.00
2018,12,27,16,32,0.00
2018,12,27,16,33,0.00
2018,12,27,16,34,0.00
2018,12,27,16,35,0.00
2018,12,27,16,36,0.00
2018,12,27,16,37,0.00
2018,12,27,16,38,0.00
2018,12,27,16,39,0.00
2018,12,27,16,40,0.00
2018,12,27,16,41,0.00
2018,12,27,16,42,0.00
2018,12,27,16,43,0.00
2018,12,27,16,44,0.00
2018,12,27,16,45,0.00
2018,12,27,16,46,0.00
2018,12,27,16,47,0.00
2018,12,27,16,48,0.00
2018,12,27,16,49,0.00
2018,12,27,16,50,0.00
2018,12,27,16,51,0.00
2018,12,27,16,52,0.00
2018,12,27,16,53,0.00
2018,12,27,16,54,0.00
2018,12,27,16,55,0.00
2018,12,27,16,56,0.00
2018,12,27,16,57,0.00
2018,12,27,16,58,0.00
2018,12,27,16,59,0.00
2018,12,27,17,00,0.00
2018,12,27,17,01,0.00
2018,12,27,17,02,0.00
2018,12,27,17,03,0.00
2018,12,27,17,04,0.00
2018,12,27,17,05,0.00
2018,12,27,17,06,0.00
2018,12,27,17,07,0.00
2018,12,27,17,08,0.00
2018,12,27,17,09,0.00
2018,12,27,17,10,0.00
2018,12,27,17,11,0.00
2018,12,27,17,12,0.00
2018,12,27,17,13,0.00
2018,12,27,17,14,0.00
2018,12,27,17,15,0.00
2018,12,27,17,16,0.00
2018,12,27,17,17,0.00
2018,12,27,17,18,0.00
2018,12,27,17,19,0.00
2018,12,27,17,20,0.00
2018,12,27,17,21,0.00
2018,12,27,17,22,0.00
2018,12,27,17,23,0.00
2018,12,27,17,24,0.00
2018,12,27,17,25,0.00
2018,12,27,17,26,0.00
2018,12,27,17,27,0.00
2018,12,27,17,28,0.00
2018,12,27,17,29,0.00
2018,12,27,17,30,0.00
2018,12,27,17,31,0.00
2018,12,27,17,32,0.00
2018,12,27,17,33,0.00
2018,12,27,17,34,0.00
2018,12,27,17,35,0.00
2018,12,27,17,36,0.00